Weather in Yakovlevskaya

Russia / Arkhangel'skaya Oblast'     62°31′27″N   43°39′55″E
temp.,
°C
wind,
m/s
gust,
m/s
humid.,
%
clouds,
%
prec.,
mm/h
press.,
hPa
HPBL,
m
14 april, wed
wed1400:00+7s1199100 0.0 102012
03:00+7s1199100 0.4 101917
06:00+8s269979 0.0 1018178
09:00+11ssw399084 0.0 1016427
12:00+16sw51360100 0.0 10141169
15:00+17sw51259100 0.4 10121565
18:00+8nw41090100 1.1 1015608
21:00+4nw4994100 2.6 1018727
15 april, thu
thu1500:00+4wnw2793100 0.6 1019584
03:00+4wnw3886100 0.9 1021511
06:00+2nw3884100 0.0 1023494
09:00+3nw466452 0.0 1025787
12:00+6nw57515 0.0 10261469
15:00+6nnw57445 0.0 10281686
18:00+4nnw46500 0.0 10291077
21:00+1nw27690 0.0 1031161
16 april, fri
fri1600:00−1nnw24720 0.0 1032111
03:00−1nw11705 0.0 103223
06:000sw13635 0.0 1032135
09:00+5wsw474710 0.0 1031684
12:00+8w57435 0.0 10311366
15:00+9nw485024 0.0 10301632
18:00+8wnw48605 0.0 1030766
21:00+4nw28815 0.0 1031174
17 april, sat
sat1700:00+2nw268693 0.0 1032139
03:00+1nw289333 0.0 1033199
06:00+1nw289045 0.0 1034344
09:00+4nnw477280 0.0 10341004
12:00+7nw485433 0.0 10341285
15:00+9nw4853100 0.0 10331754
18:00+7nw3862100 0.0 1033740
21:00+4wnw3108019 0.0 1032235
18 april, sun
sun1800:00+3nw29868 0.0 1033242
03:00+1nw28935 0.0 1033183
06:00+2wnw26915 0.0 1034184
09:00+6nw35655 0.0 1033541
12:00+10nw355311 0.0 10331485
15:00+11nw354387 0.0 10331913
18:00+10nne235394 0.0 1033153
21:00+5ese23765 0.0 103451